Location: Kund?v?rikhandrika
(16.5803°N, 80.6668°E)
Time: 19:08:34
(UTC+00:00)

Daily predictions for brighter satellites

Satellite Brightness Start Highest point End
(mag) Time Altitude Azimuth Time Altitude Azimuth Time Altitude Azimuth
Cosmos 2228 Rocket 4.3 13:00:18 10° NNW 13:04:34 48° W 13:08:47 10° SSW
Cosmos 1939 Rocket 3.7 13:03:57 10° S 13:07:44 53° W 13:11:30 10° NNW
SeaSat 1 2.8 13:06:27 10° NNE 13:11:21 72° WNW 13:16:15 10° SSW
CZ-2C R/B 2.8 13:06:58 10° NNE 13:12:07 48° E 13:17:09 10° S
CZ-4 R/B 1.9 13:08:59 10° SE 13:12:28 34° ENE 13:15:57 10° N
GPS 2-14 Rocket1 3.2 13:08:47 10° WNW 13:12:30 45° N 13:16:08 10° ENE
GPS 2-15 Rocket1 3.5 13:14:15 10° W 13:19:08 66° SSW 13:24:02 10° ESE
Cosmos 1707 Rocket 3.5 13:16:08 10° N 13:20:29 83° E 13:24:48 10° S
Okean 1 4.1 13:17:52 10° NNE 13:21:25 30° E 13:24:58 10° SE
Meteor 1-5 Rocket 4.4 13:18:27 10° SSE 13:23:25 42° E 13:28:25 10° NNE
Cosmos 1515 4.4 13:20:06 10° NNE 13:23:31 32° E 13:26:54 10° SSE
Cosmos 2333 4.2 13:18:29 10° S 13:23:59 62° ESE 13:29:32 10° NNE
CENTAUR R/B 3.8 13:22:22 10° SE 13:24:22 12° ESE 13:24:46 12° ESE
Okean-O 2.9 13:23:16 10° SSE 13:27:29 45° ENE 13:31:42 10° N
Stardust Del rocket 3.0 13:25:33 10° WNW 13:27:43 32° N 13:28:51 20° ENE
Cosmos 1437 3.9 13:25:05 10° NNW 13:27:48 40° W 13:30:32 10° SSW
ATLAS CENTAUR R/B 4.0 13:26:16 10° WSW 13:28:37 16° WNW 13:30:55 10° NNW
Cosmos 2360 Rocket 3.2 13:25:16 10° SSW 13:30:41 50° WNW 13:36:09 10° N
SME Rocket 4.2 13:27:46 10° NE 13:32:10 26° E 13:35:38 10° SSE
SWIFT 2.7 13:29:57 10° W 13:34:02 52° N 13:36:46 19° ENE
CREW DRAGON DEMO-1 DEB 3.3 13:33:59 10° SW 13:36:44 54° NW 13:39:06 13° NNE
Cosmos 2333 Rocket 2.1 13:34:27 10° S 13:40:02 68° ESE 13:45:40 10° NNE
Cosmos 1666 2.8 13:37:45 10° SSE 13:41:19 47° E 13:44:53 10° NNE
Lacrosse 5 rocket 4.1 13:43:04 10° WNW 13:45:54 18° WSW 13:48:39 10° SSW
Centaur AC-119 2.7 13:45:06 10° SSW 13:46:30 23° SSE 13:46:30 23° SSE
HJ-1C 3.3 13:44:58 10° SSE 13:48:15 60° ENE 13:51:31 10° N
Meteor 1-19 Rocket 4.1 13:44:58 10° N 13:50:45 72° E 13:56:20 10° SSE
Centaur D-1A AC-31 4.3 13:48:15 10° SE 13:50:36 12° ESE 13:50:36 12° ESE
SL-08 RB Rocket 3.8 13:50:10 10° SSE 13:54:27 47° ENE 13:58:46 10° N
Meteor 2-4 Rocket 4.1 13:50:45 10° NNE 13:56:18 42° E 14:01:51 10° SSE
COSMOS 2455 4.4 13:52:36 10° NW 13:58:03 37° WSW 14:03:30 10° S
COSMOS 2428 2.6 14:04:21 10° SSW 14:10:02 87° WNW 14:15:43 10° NNE
USA 238 DEB 3.4 14:08:33 10° SSW 14:14:54 66° ESE 14:18:06 31° NE
USA 238 3.4 14:08:38 10° SSW 14:15:00 65° ESE 14:18:08 32° NE
Meteor 1-11 Rocket 3.6 14:09:44 10° S 14:15:34 81° E 14:21:17 10° N
Nadezhda 3 Rocket 4.5 14:09:20 10° NNW 14:15:37 63° W 14:21:51 10° S
Cosmos 2219 Rocket 2.8 14:12:33 10° SSW 14:17:59 56° WNW 14:23:27 10° N
Lacrosse 4 Rocket 3.2 14:16:11 10° SW 14:20:01 32° WNW 14:23:57 10° N
Helios 1A Rocket 3.7 14:18:35 10° S 14:22:33 52° W 14:26:30 10° NNW
Hubble Space Telescope 2.0 14:20:20 10° W 14:24:03 32° NNW 14:24:07 32° NNW
ARGOS 4.0 14:19:17 10° S 14:24:29 51° W 14:29:44 10° NNW
GPS 2-12 Rocket1 3.1 14:22:05 10° W 14:26:49 77° NNW 14:26:49 77° NNW
GP-B 4.5 14:23:35 10° SSW 14:27:41 38° W 14:31:49 10° NNW
Cosmos 2242 Rocket 4.4 14:23:29 10° N 14:26:23 40° N 14:26:23 40° N
Cosmos 1238 Rocket 3.7 14:31:15 10° S 14:36:00 62° S 14:36:00 62° S
Delta 168 4.1 14:35:21 10° W 14:42:45 55° NNW 14:43:00 55° N
NOSS 3-2 (A) 4.1 14:42:31 10° SW 14:47:31 43° WNW 14:49:39 30° NNW
CENTAUR R/B 3.7 15:09:12 10° SW 15:12:05 30° WSW 15:12:05 30° WSW
Cosmos 2237 Rocket 4.4 15:11:30 10° SSW 15:12:34 16° SSW 15:12:34 16° SSW
Chandra Rocket (1) 4.4 22:26:44 29° SE 22:26:44 29° SE 22:28:37 10° SE
Mugunghwa Rocket 4.3 22:47:44 55° N 22:48:05 56° NNE 22:54:22 10° E
USA 234 3.7 22:42:53 10° SE 22:49:15 58° NE 22:52:15 32° NNW
NOSS 3-4 (A) 4.1 22:50:18 24° S 22:53:34 47° ESE 22:59:07 10° NE
NOSS 3-4 (C) 4.1 22:50:15 22° S 22:53:39 46° ESE 22:59:12 10° NE
IUS-7 SRM-1 4.3 22:55:17 39° NNE 22:55:17 39° NNE 23:03:54 10° E
GPS 2-17 Rocket1 4.4 22:56:08 35° SE 22:56:08 35° SE 22:59:50 10° E
Milstar 3 Cent rocket 3.4 23:03:04 25° N 23:03:04 25° N 23:06:14 10° NE
Ariane H10+ 4.0 23:05:46 12° S 23:07:24 14° SSE 23:10:54 10° ESE
ATLAS 2AS CENTAUR R/B 4.0 23:00:29 10° S 23:07:38 44° ESE 23:15:01 10° NE
Cosmos 2322 Rocket 3.6 23:02:43 10° N 23:07:57 37° ENE 23:13:10 10° SE
Cosmos 1862 3.9 23:08:24 56° ESE 23:08:24 56° ESE 23:12:03 10° SSE
Haruka 4.1 23:07:49 51° W 23:09:47 77° SSW 23:35:24 10° SE
ADEOS 3.5 23:13:11 10° NNE 23:18:25 90° WNW 23:23:38 10° SSW
Cosmos 1933 4.4 23:16:10 10° SSE 23:19:59 45° E 23:23:48 10° NNE
Alouette 2 Rocket 4.0 23:16:17 10° S 23:20:20 71° E 23:26:14 10° NNE
OAO 1 4.5 23:19:13 51° NW 23:20:40 83° NNE 23:26:11 10° ESE
CZ-3 Stage 3 1.5 23:25:33 44° ESE 23:25:33 44° ESE 23:26:55 10° ESE
SJ-12 3.8 23:25:10 10° NNE 23:29:12 88° ESE 23:33:15 10° S
SL-16 R/B 2.1 23:27:01 10° NNW 23:32:42 86° WSW 23:38:21 10° SSE
CZ-4C R/B 1.9 23:38:50 39° W 23:39:49 45° WNW 23:44:28 10° N
Cosmos 1140 Rocket 3.9 23:36:27 10° S 23:41:37 66° ESE 23:46:47 10° NNE
ATLAS CENTAUR R/B 1.6 23:40:07 30° NW 23:42:02 56° WSW 23:46:32 10° S
CZ-2C R/B 4.1 23:40:15 10° S 23:42:42 15° SE 23:45:10 10° ESE
Cosmos 1745 Rocket 4.3 23:38:14 10° NNW 23:44:05 41° W 23:49:59 10° SSW
ATLAS 5 CENTAUR R/B 1.3 23:43:40 37° WSW 23:44:44 51° WNW 23:48:29 10° NNE
Cosmos 1302 Rocket 4.1 23:42:22 10° NNW 23:47:28 52° WSW 23:52:34 10° S
COSMO-SKYMED 1 4.1 23:43:56 10° SE 23:47:57 38° ENE 23:51:58 10° N
CZ-4B R/B 3.2 23:44:13 10° NNE 23:48:44 84° ESE 23:53:11 10° S
BREEZE-M (TANK) 4.2 23:51:26 17° SW 23:51:55 17° SSW 23:55:38 10° S
